COSMOS 2501 (702K)

Last updated on Thu Nov 21 2024 00:03:12 GMT+0000 (Coordinated Universal Time)

1 40315U 14075A 24325.39661959 .00000007 00000+0 00000+0 0 9999 2 40315 63.6160 210.2511 0019367 205.8098 154.1718 2.13101393 77629
UTC large
Height (km)
Speed (km/s)
/
Latitude / Longitude
Inclination (degrees)
Orbital Period (minutes)
Azimuth
Elevation
Range (km)
Doppler Factor

Next 0 passes for location: London (51.5072 / 0.1276)

Sorry there are no passes over London.